軌道要素
Epoch 2017 Sept. 4.0 TT = JDT 2458000.5
T 2017 Aug. 31.90010 TT MPCW
q 1.9041154 (2000.0) P Q
n 0.11673102 Peri. 10.36734 +0.79832990 -0.59574612
a 4.1464700 Node 26.81013 +0.53760792 +0.63911529
e 0.5407864 Incl. 11.25973 +0.27138000 +0.48643417
P 8.44
From 738 observations 1991 Sept. 17-2018 Jan. 23, mean residual 0".6.
Nongravitational parameters A1 = -0.01, A2 = -0.0140.
|